sat.trackr.live / text

‹ back to catalog

STARLINK-5417

NORAD 54805 · 2022-175AZ

PAYLOAD ACTIVE UNKNOWN

§ Identity

Operator
Country
US
Launch date
2022-12-17
Launch site
AFETR
Launch vehicle
Mass (kg)
RCS (m²)

Purposes: comms

External: N2YO · Heavens-Above · Gunter

§ Orbital elements

Epoch: 2026-05-25T03:11:10.849344Z

Period
95.49 min
Inclination
53.2188°
Eccentricity
0.0001376
Mean motion
15.07992879 rev/d
Perigee alt
541.4 km
Apogee alt
543.3 km
Semi-major
6,920.5 km
B*
2.6172e-4
RAAN
45.6832°
Arg perigee
96.0672°
Mean anomaly
264.0477°
Rev number
19,167

§ Raw data

STARLINK-54171 54805U 22175AZ  26145.13276446  .00003787  00000+0  26172-3 0  99952 54805  53.2188  45.6832 0001376  96.0672 264.0477 15.07992879191677

JSON: /api/v1/satellites/54805 · /tle

For live sub-satellite position, see the globe view (requires WebGL).

§ Visibility from observer

Set your observer location to see the next 7 days of passes ≥ 10°. The values pass through the URL so the page stays shareable.

No JS? Fill the form by hand. The geolocation button needs JavaScript.